Lid_Strength_Index
1 1 1 1 1 1 0 0 0 0 0 -0 -0 -0 -0 -0 -0 4 7 4 2 -2 0 5 5 6 7 7 7 9 13 14 13 12 11 11 11 11 11 11 11 9 10 10 9
1 1 1 1 1 1 1 1 1 1 0 0 -0 -0 -0 -0 4 6 1 -3 -3 -2 5 6 8 7 9 8 8 10 13 13 11 10 11 11 11 11 12 11 12 11 11 10 10
1 1 1 1 1 1 1 1 1 1 1 0 0 -0 0 1 7 6 -2 -2 -2 -1 5 6 7 7 9 9 9 10 12 10 9 9 10 10 11 10 11 11 11 10 10 11 11
1 2 2 2 2 1 1 1 1 1 1 1 0 0 0 3 13 5 -1 -2 -2 3 5 7 8 9 10 10 8 11 9 9 8 8 10 10 10 11 11 8 9 9 10 11 11
1 1 2 2 2 1 1 1 1 1 1 1 1 1 4 9 8 3 -1 -0 3 4 7 7 8 9 10 10 10 10 10 8 8 9 9 10 10 10 10 9 9 9 10 10 10
1 1 2 2 2 2 2 2 2 1 1 1 1 1 8 12 6 4 5 5 6 7 8 8 8 8 10 10 10 11 10 9 9 9 9 10 10 10 8 9 9 9 9 10 10
1 2 2 2 2 2 2 2 2 2 2 2 2 3 8 10 7 6 6 7 7 8 8 8 8 8 10 11 9 10 11 11 10 10 10 10 12 12 8 10 9 10 10 10 10
2 3 3 3 3 3 2 2 2 3 3 2 2 5 12 6 8 7 8 8 8 8 8 8 8 9 10 9 11 13 12 14 12 11 11 10 13 10 9 10 10 10 10 10 9
3 3 3 3 3 3 3 3 3 2 2 2 6 9 11 5 8 7 8 9 9 8 9 7 8 11 11 13 15 15 16 15 13 11 11 12 13 10 10 11 11 10 11 10 9
2 3 3 3 3 2 2 2 3 3 3 3 5 10 9 10 8 8 9 8 10 10 10 10 12 13 13 15 17 16 17 15 15 13 13 13 13 10 10 12 12 11 12 12 11
2 2 3 2 2 2 4 7 10 11 9 12 11 11 10 8 7 9 8 9 9 11 14 13 15 16 13 13 12 16 16 16 14 12 13 13 13 11 9 11 12 11 10 9 9
2 2 2 2 2 2 6 8 9 9 12 10 10 9 8 8 10 9 8 10 11 14 13 15 16 13 12 13 14 14 15 15 13 12 14 14 14 12 12 10 10 10 10 10 9
2 2 2 2 2 5 8 9 6 7 13 12 10 11 11 8 11 10 9 11 13 14 14 14 13 12 13 14 15 15 15 15 15 14 15 16 16 16 13 12 10 11 10 9 9
2 2 3 3 5 7 9 7 7 8 18 15 13 11 10 10 13 11 11 12 13 14 14 15 12 13 14 14 13 15 13 14 15 17 18 16 19 17 15 14 13 12 11 11 10
2 2 3 3 7 8 7 7 8 11 21 14 13 9 10 13 13 13 12 12 15 14 14 15 15 15 15 13 13 14 14 15 16 18 18 18 19 18 15 16 14 12 11 11 10
3 3 3 4 7 7 7 7 10 16 21 15 13 13 14 13 13 13 14 13 14 15 15 15 14 14 14 14 14 14 15 16 18 18 20 17 17 18 17 15 14 12 12 11 10
3 3 4 4 7 6 7 8 13 18 13 15 15 14 15 15 14 15 16 16 16 18 19 17 16 16 14 15 15 15 16 21 22 23 21 17 20 15 15 13 13 12 11 11 11
3 3 4 4 5 6 6 9 17 13 14 12 12 14 14 14 14 15 17 17 16 16 18 19 18 16 14 14 16 16 15 18 23 22 18 20 20 16 13 12 12 12 12 13 13
3 3 4 4 5 5 8 15 14 12 10 11 10 13 14 14 14 15 17 17 15 15 16 18 17 15 15 14 14 17 18 14 18 25 23 17 16 14 14 13 13 13 13 13 13
4 4 5 3 4 6 10 13 11 10 9 9 13 12 15 14 13 15 15 15 14 14 13 15 17 15 16 15 15 15 14 18 19 21 23 19 19 16 14 14 14 13 13 13 13
3 6 5 3 3 7 13 12 10 8 8 10 11 12 13 13 11 13 13 13 12 14 12 13 14 15 16 16 15 16 16 16 15 17 18 19 17 15 14 15 14 13 12 13 13
5 9 3 3 9 9 11 10 8 8 7 8 9 10 11 11 12 13 13 11 9 9 11 11 12 16 14 13 14 14 14 13 16 17 17 18 16 10 10 11 10 11 11 12 12
6 7 3 3 12 11 9 9 8 9 9 9 10 9 9 11 14 12 11 8 7 8 11 10 14 17 16 13 12 15 14 14 14 15 16 18 16 10 10 10 10 10 10 11 11
7 10 6 5 6 9 10 11 11 8 9 8 9 8 10 12 10 12 11 9 8 8 7 8 12 15 17 14 12 13 14 14 14 16 16 16 15 12 11 10 9 9 9 12 10
9 11 7 11 10 9 9 10 11 11 8 8 10 10 11 13 12 12 11 10 8 7 8 10 15 14 13 12 12 12 13 12 13 12 15 13 12 11 10 10 9 8 8 9 11
10 10 8 9 9 9 9 10 11 10 9 10 11 9 9 12 11 13 11 12 12 9 10 10 15 13 15 13 13 14 12 12 12 12 12 12 12 8 7 7 7 8 7 7 8
8 8 8 11 12 13 11 10 10 9 8 8 9 10 10 9 9 9 8 8 9 10 11 11 13 15 17 14 14 17 13 13 12 11 12 15 11 11 11 10 8 8 11 11 11